User: anonymous   Login
Location: Bismarck
(46.7731°N, 100.8200°W)
Time: 06:09:05
(UTC-05:00)
Language:

Cosmos 1125 Rocket - Orbit

View from above orbital plane
View from above orbital plane
View from above satellite
View from above satellite

Ground track
Ground track

The orbit data is extracted from the following two-line orbital elements,

1 11511U 79078B   17149.92133555 +.00000057 +00000-0 +28199-4 0  9990
2 11511 074.0367 348.8749 0016427 238.8999 121.0543 14.36769373975735
Epoch (UTC): 29 May 2017 22:06:43
Eccentricity: 0.0016427
inclination: 74.0367°
perigee height: 757 km
apogee height: 781 km
right ascension of ascending node: 348.8749°
argument of perigee: 238.8999°
revolutions per day: 14.36769373
mean anomaly at epoch: 121.0543°
orbit number at epoch: 97573

The dashed part of the orbit path shows where the satellite is in the earth's shadow,  

DLR